Location: Newark
(48.5667°N, 12.8167°E)
Time: 04:49:42
(UTC+00:00)

METEOR M2 - Pass Details

Date: 22 November 2019
Orbit: 818 x 828 km, 98.5° (Epoch: 14 December)

Event Time Altitude Azimuth Distance (km) Brightness Sun altitude
Exits shadow 17:15:50 13° 25° (NNE) 2,206 ? -18.4°
Drops below altitude 10° 17:16:51 10° 16° (NNE) 2,435 ? -18.5°
Sets 17:19:56 0° 357° (N) 3,371 ? -19.0°
